Flag for Japan Weather past 2 weeks in Nagano, Japan

Now
70 °F

Mild.


Feels Like: 70 °F
Forecast: 64 / 85 °F
Wind: 2 mph from Southeast

Location: Nagano

Current Time: Aug 24, 2014 at 1:18:54 AM

Latest Report: Aug 24, 2014 at 12:00 AM


Visibility: N/A

Pressure: 29.89 "Hg

Humidity: 90%

Dew point: 67 °F

Location of NaganoLocation

Historic Weather in Nagano — Graph

°F

Nagano temperature yesterday

Maximum temperature yesterday: 89 °F (at 2:00 PM)
Minimum temperature yesterday: 70 °F (at 11:00 PM)
Average temperature yesterday: 77 °F

Past Weeks' High & Low Weather Summary

 TemperatureHumidityPressure
High92 °F (Aug 18, 3:00 PM)98% (Aug 17, 6:00 AM)30.00 "Hg (Aug 17, 6:00 AM)
Low66 °F (Aug 9, 5:00 AM)44% (Aug 23, 2:00 PM)29.18 "Hg (Aug 10, 4:00 PM)
Average77 °F80%29.78 "Hg
* Reported Midnight between Aug 8 and Aug 9 — Midnight between Aug 23 and Aug 24, Nagano, Weather by CustomWeather, © 2014

Note: Actual official high and low records may vary slightly from our data, if they occured in-between our weather recording intervals... More about our weather records

Advertising

Nagano weather history for previous 24 hours

 ConditionsComfort  
Time TempWeatherWind HumidityBarometerVisibility
12:00 AM
Aug 24
70 °FMild.2 mph90%29.89 "HgN/A
11:00 PM
Aug 23
70 °FMild.3 mph89%29.88 "HgN/A
10:00 PM71 °FMild.2 mph84%29.87 "HgN/A
9:00 PM73 °FOvercast.1 mph86%29.86 "Hg9 mi
8:00 PM72 °FMild.5 mph83%29.86 "HgN/A
7:00 PM76 °FMild.5 mph68%29.82 "HgN/A
6:00 PM77 °FMild.3 mph83%29.81 "HgN/A
5:00 PM80 °FWarm.8 mph70%29.80 "HgN/A
4:00 PM81 °FWarm.9 mph67%29.77 "HgN/A
3:00 PM85 °FOvercast.12 mph61%29.75 "Hg19 mi
2:00 PM89 °FHot.8 mph44%29.74 "HgN/A
1:00 PM87 °FWarm.6 mph47%29.78 "HgN/A
12:00 PM85 °FWarm.6 mph52%29.80 "HgN/A
11:00 AM83 °FWarm.5 mph57%29.83 "HgN/A
10:00 AM81 °FWarm.5 mph62%29.84 "HgN/A
9:00 AM78 °FPartly sunny.3 mph69%29.87 "Hg12 mi
8:00 AM76 °FMild.3 mph73%29.88 "HgN/A
7:00 AM72 °FMild.3 mph83%29.90 "HgN/A
6:00 AM72 °FMild.1 mph84%29.88 "HgN/A
5:00 AM71 °FMild.No wind86%29.87 "HgN/A
4:00 AM71 °FMild.3 mph87%29.86 "HgN/A
3:00 AM73 °FSprinkles. Overcast.2 mph82%29.84 "Hg9 mi
2:00 AM74 °FMild.2 mph82%29.84 "HgN/A
1:00 AM74 °FMild.2 mph82%29.85 "HgN/A
Weather by CustomWeather, © 2014

See weather overviewHow to use our weather pages